SCP
0 0 0 0 0 0 0 0 0 0 0 0 0 0 0 0 0 0 0 0 0 0 0 0 0 0 0 0 0 0 0 0 0 0 0 0 0 0
0 0 0 0 0 0 0 0 0 0 0 0 0 0 0 0 0 0 0 0 0 0 0 0 0 0 0 0 0 0 0 0 0 0 0 0 0 0
0 0 0 0 0 0 0 0 0 0 0 0 0 0 0 0 0 0 0 0 0 0 0 0 0 0 0 0 0 0 0 0 0 0 0 0 0 0
0 0 0 0 0 0 0 0 0 0 0 0 0 0 0 0 0 0 0 0 0 0 0 0 0 0 0 0 0 0 0 0 0 0 0 0 0 0
0 0 0 0 0 0 0 0 0 0 0 0 0 0 0 0 0 0 0 0 0 0 0 0 0 0 0 0 0 0 0 0 0 0 0 0 0 0
0 0 0 0 0 0 0 0 0 0 0 0 0 0 0 0 0 0 0 0 0 0 0 0 0 0 0 0 0 0 0 0 0 0 0 0 0 0
0 0 0 0 0 0 0 0 0 0 0 0 0 0 0 0 0 0 0 0 0 0 0 0 0 0 0 0 0 0 0 0 0 0 0 0 0 0
0 0 0 0 0 0 0 0 0 0 0 0 0 0 0 0 0 0 0 0 0 0 0 0 0 0 0 0 0 0 0 0 0 0 0 0 0 0
0 0 0 0 0 0 0 0 0 0 0 0 0 0 0 0 0 0 0 0 0 0 0 0 0 0 0 0 0 0 0 0 0 0 0 0 0 0
0 0 0 0 0 0 0 0 0 0 0 0 0 0 0 0 0 0 0 0 0 0 0 0 0 0 0 0 0 0 0 0 0 0 0 0 0 0
0 0 0 0 0 0 0 0 0 0 0 0 0 0 0 0 0 0 0 0 0 0 0 0 0 0 0 0 0 0 0 0 0 0 0 0 0 0
0 0 0 0 0 0 0 0 0 0 0 0 0 0 0 0 0 0 0 0 0 0 0 0 0 0 0 0 0 0 0 0 0 0 0 0 0 0
0 0 0 0 0 0 0 0 0 0 0 0 0 0 0 0 0 0 0 0 0 0 0 0 0 0 0 0 0 0 0 0 0 0 0 0 0 0
0 0 0 0 0 0 0 0 0 0 0 0 0 0 0 0 0 0 0 0 0 0 0 0 0 0 0 0 0 0 0 0 0 0 0 0 0 0
0 0 0 0 0 0 0 0 0 0 0 0 0 0 0 0 0 0 0 0 0 0 0 0 0 0 0 0 0 0 0 0 0 0 0 0 0 0
0 0 0 0 0 0 0 0 0 0 0 0 0 0 0 0 0 0 0 0 0 0 0 0 0 0 0 0 0 0 0 0 0 0 0 0 0 0
0 0 0 0 0 0 0 0 0 0 0 0 0 0 0 0 0 0 0 0 0 0 0 0 0 0 0 0 0 0 0 0 0 0 0 0 0 0
0 0 0 0 0 0 0 0 0 0 0 0 0 0 0 0 0 0 0 0 0 0 0 0 0 0 0 0 0 0 0 0 0 0 0 0 0 0
0 0 0 0 0 0 0 0 0 0 0 0 0 0 0 0 0 0 0 0 0 0 0 0 0 0 0 0 0 0 0 0 0 0 0 0 0 0
0 0 0 0 0 0 0 0 0 0 0 0 0 0 0 0 0 0 0 0 0 0 0 0 0 0 0 0 0 0 0 0 0 0 0 0 0 0
0 0 0 0 0 0 0 0 0 0 0 0 0 0 0 0 0 0 0 0 0 0 0 0 0 0 0 0 0 0 0 0 0 0 0 0 0 0
0 0 0 0 0 0 0 0 0 0 0 0 0 0 0 0 0 0 0 0 0 0 0 0 0 0 0 0 0 0 0 0 0 0 0 0 0 0
0 0 0 0 0 0 0 0 0 0 0 0 0 0 0 0 0 0 0 0 0 0 0 0 0 0 0 0 0 0 0 0 0 0 0 0 0 0
Wind_Speed
3 2 2 2 2 2 3 4 4 2 2 3 2 2 2 2 4 4 4 7 9 10 11 10 10 10 10 9 9 8 8 8 8 7 7 8 9 8
2 2 2 1 1 2 2 2 3 4 3 3 3 2 2 3 4 4 4 7 8 10 10 10 10 10 10 10 9 9 9 8 8 8 8 8 9 8
2 3 2 2 2 1 2 2 2 3 3 3 2 1 2 2 2 2 3 3 4 8 10 10 10 10 10 10 10 9 9 9 8 8 9 9 9 9
3 3 3 2 2 2 2 2 2 2 3 2 2 1 2 2 2 2 2 3 3 6 8 10 10 10 10 10 10 10 10 9 9 9 9 9 9 9
4 4 4 4 3 2 2 2 2 1 2 2 2 1 1 1 0 1 2 2 3 4 6 8 9 10 10 10 10 10 10 10 9 9 9 9 9 9
4 4 4 5 5 4 3 3 2 2 1 1 1 1 1 1 1 1 2 2 2 2 2 4 6 8 9 10 10 10 10 10 10 9 9 9 9 9
3 4 4 5 6 5 4 4 3 2 2 2 2 1 1 1 2 2 2 2 2 2 1 2 2 3 4 7 9 10 10 10 10 9 9 9 9 9
4 4 4 4 6 7 7 6 6 5 4 3 2 3 4 3 2 2 2 1 2 2 1 3 2 3 4 4 7 9 10 10 10 10 9 9 9 9
5 4 3 4 5 4 5 6 6 7 7 5 4 5 4 4 3 2 2 3 4 3 2 3 2 3 3 4 7 8 9 9 10 10 10 10 10 9
5 5 5 4 4 4 4 3 3 4 6 5 6 6 5 5 5 4 4 3 3 2 3 2 2 3 3 2 5 8 9 9 10 10 10 10 10 10
4 4 4 4 5 5 4 4 3 4 5 6 7 7 7 6 5 2 2 1 2 3 2 3 2 2 2 2 3 7 8 8 9 9 9 9 9 8
3 3 5 5 5 5 5 5 5 5 3 2 3 4 5 5 6 5 5 3 2 3 3 3 2 1 2 2 2 2 3 6 7 7 8 8 8 4
3 3 3 5 6 7 6 5 7 5 3 3 3 3 3 3 4 4 5 5 4 4 3 3 2 1 2 2 2 2 2 2 2 3 6 7 7 6
3 3 3 6 6 6 5 6 6 4 2 2 2 3 3 4 4 4 5 6 5 6 4 4 3 3 2 2 3 2 1 2 2 2 2 3 5 7
3 4 5 6 5 4 6 6 4 3 3 3 4 4 4 4 3 2 3 3 4 5 4 4 4 3 3 3 3 2 2 2 3 3 2 3 3 3
3 3 3 3 3 3 3 3 3 3 4 4 4 4 3 2 3 2 2 2 2 3 4 4 5 5 4 4 3 3 2 2 2 3 3 3 3 3
2 1 1 1 1 2 2 2 2 2 3 3 3 3 3 2 3 2 2 2 3 3 3 2 2 3 4 4 3 4 3 3 3 3 2 3 3 4
4 2 3 3 4 3 3 3 2 3 3 3 2 2 2 2 2 2 2 2 3 3 3 2 1 1 2 2 4 4 3 3 3 3 3 3 4 4
3 3 4 4 4 4 4 3 3 3 3 2 3 3 3 2 2 2 2 2 3 3 3 2 2 2 2 4 4 4 4 3 2 2 3 3 4 5
4 4 4 4 4 4 4 4 3 3 2 3 3 3 3 2 2 2 2 3 3 3 3 2 3 4 5 5 4 3 5 4 3 3 3 3 3 4
5 4 4 4 4 4 4 3 3 3 3 3 3 3 2 2 3 3 2 3 3 2 3 4 5 5 2 1 2 3 3 5 6 4 3 2 2 2
5 5 4 4 4 4 3 3 3 3 3 3 3 3 3 2 3 3 3 2 3 3 4 4 2 1 1 3 4 4 4 3 3 4 5 6 4 4
4 4 3 3 3 3 3 4 4 3 3 3 3 3 3 3 3 3 3 3 2 3 2 2 2 1 2 3 3 3 4 3 2 2 3 4 7 7
Wind_Direction
191 183 182 192 183 178 163 159 159 190 254 264 263 252 227 210 215 209 216 223 221 218 218 220 222 223 225 223 222 220 220 221 222 224 225 226 228 228
191 182 193 190 182 170 168 169 163 167 212 244 238 240 234 230 217 216 230 229 226 222 221 220 220 221 223 223 222 221 222 223 224 225 227 229 229 229
199 187 198 183 175 171 164 163 168 162 196 257 251 248 218 229 234 234 238 231 233 228 226 224 222 222 223 223 223 223 224 225 226 227 230 231 230 229
208 195 203 190 185 183 172 181 186 180 175 224 263 263 243 229 220 232 250 239 238 236 228 225 224 224 224 223 223 224 224 225 226 228 229 229 229 229
207 202 203 187 197 194 186 189 200 188 166 186 241 254 264 252 244 268 269 272 257 246 231 227 225 226 226 226 226 225 223 224 226 228 228 228 228 229
208 205 201 195 200 198 197 201 195 178 173 185 225 250 258 267 158 240 288 284 277 273 246 234 232 232 231 231 230 227 223 222 224 226 226 226 227 229
217 214 208 202 202 202 203 200 188 184 184 192 217 239 249 233 225 217 237 283 285 255 251 251 231 233 234 233 231 228 223 221 222 224 226 227 227 230
214 224 222 211 215 217 216 205 191 187 193 196 214 224 237 226 217 209 206 229 278 262 197 264 221 235 237 230 229 225 221 219 220 223 225 228 228 228
207 211 224 219 208 210 221 223 217 211 198 192 206 222 219 216 198 215 218 213 232 238 188 258 247 246 245 238 224 219 220 224 228 230 228 228 229 229
207 204 209 224 219 202 203 216 227 226 215 204 208 223 221 213 199 200 209 231 265 254 183 223 245 249 256 246 228 219 222 229 233 234 233 232 232 232
226 217 207 217 224 204 197 214 239 257 244 227 222 228 229 224 202 166 178 189 269 272 210 195 237 258 269 259 240 223 225 229 233 235 234 234 233 233
244 235 223 223 224 208 202 208 227 244 240 243 245 256 246 241 222 200 189 192 217 254 232 191 218 207 276 267 248 232 231 239 239 238 234 234 229 219
230 239 240 232 227 224 216 215 226 225 214 219 235 253 257 247 232 216 202 191 200 231 225 180 204 201 218 271 280 245 221 232 228 236 234 233 224 208
225 234 237 229 229 229 225 231 229 212 202 214 236 249 250 249 242 226 217 217 216 225 222 180 193 200 201 241 266 266 252 237 221 229 230 233 229 224
232 241 241 236 235 236 236 230 217 203 203 219 234 242 240 243 243 239 231 226 243 247 233 208 204 208 198 215 232 239 255 253 221 214 215 215 217 212
242 248 239 229 234 239 241 234 219 213 209 222 236 246 254 250 240 223 225 219 242 270 253 228 216 203 217 228 217 238 230 226 229 225 222 232 230 218
187 178 184 208 229 235 242 244 230 220 229 239 241 248 252 250 250 226 214 213 220 245 268 272 244 225 220 209 215 233 232 237 230 218 209 235 244 232
161 194 216 218 220 223 222 228 225 224 232 232 233 237 240 246 256 244 211 213 231 242 247 252 266 332 339 290 223 221 229 234 233 215 207 226 258 250
180 209 215 220 224 222 219 215 220 223 219 218 226 233 231 231 240 253 242 234 240 241 240 223 198 189 239 273 277 225 213 229 220 227 226 223 243 254
209 216 220 221 220 218 216 214 215 212 210 219 226 233 229 224 232 242 245 242 244 245 246 230 213 210 219 238 252 261 227 212 208 225 243 250 258 271
218 221 220 218 219 216 216 213 208 206 208 210 221 229 226 218 230 237 240 251 247 242 245 248 243 234 228 193 269 273 261 229 212 212 216 233 260 272
217 217 216 210 211 209 204 201 201 203 207 214 223 230 229 220 230 239 242 247 248 246 252 260 259 226 194 217 248 262 274 283 256 245 234 212 201 216
215 210 208 208 211 206 200 200 199 203 206 216 226 230 229 228 235 239 242 241 242 252 265 273 272 245 236 233 246 262 270 274 275 281 285 265 239 243